Campo, CA

4:52 AM PST on December 04, 2016 (GMT -0800)
Campo

Weather History for KCZZ - August, 2013

Change the Weather History Date:

Friday, August 9, 2013

  Actual Average Record
Temperature  
Mean Temperature 65 °F 74 °F  
Max Temperature 85 °F 95 °F 105 °F (1995)
Min Temperature 45 °F 54 °F 38 °F (1951)
Degree Days  
Heating Degree Days 0 0  
Month to date heating degree days 0 0  
Since 1 June heating degree days 28 63  
Since 1 July heating degree days 0 7  
Cooling Degree Days 0 9  
Month to date cooling degree days 24 81  
Year to date cooling degree days 471 453  
Since 1 June cooling degree days 444 423  
Growing Degree Days 14 (Base 50)    
Moisture  
Dew Point 37 °F    
Average Humidity 39    
Maximum Humidity 70    
Minimum Humidity 8    
Precipitation  
Precipitation 0.00 in 0.02 in 0.05 in (1998)
Month to date precipitation 0.00 0.19  
Year to date precipitation 5.02 10.66  
Since 1 July precipitation 0.24  
Snow  
Snow 0.00 in - - ()
Month to date snowfall 0.0  
Year to date snowfall 0.0  
Snow Depth 0.00 in    
Sea Level Pressure  
Sea Level Pressure 29.87 in    
Wind  
Wind Speed 8 mph (SW)    
Max Wind Speed 18 mph    
Max Gust Speed 22 mph    
T = Trace of Precipitation, MM = Missing Value Source: NWS Daily Summary

Daily Weather History Graph

Daily Weather History Graph

Search for Another Location

Airport or City:

Trip Planner

Search our weather history database for the weather conditions in past years. The results will help you decide how hot, cold, wet, or windy it might be!

Date:

Astronomy

Aug. 09, 2013 Rise Set
Actual Time 6:05 AM PDT 7:36 PM PDT
Civil Twilight 5:39 AM PDT 8:02 PM PDT
Nautical Twilight 5:07 AM PDT 8:34 PM PDT
Astronomical Twilight 4:34 AM PDT 9:07 PM PDT
Moon 8:43 AM PDT (8/9) 9:03 PM PDT (8/9)
Length of Visible Light 14h 23m
Length of Day
13h 30m
Waxing Crescent, 8% of the Moon is Illuminated
Aug 9
Waxing Crescent
Aug 14
First Quarter
Aug 20
Full
Aug 28
Last Quarter
Sep 5
New

Hourly Weather History & Observations

Time (PDT) Temp. Windchill Dew Point Humidity Pressure Visibility Wind Dir Wind Speed Gust Speed Precip Events Conditions
12:52 AM 54.0 °F - 41.0 °F 62% 29.86 in - ENE 6.9 mph - N/A   Unknown
1:52 AM 51.1 °F - 41.0 °F 68% 29.86 in - NE 4.6 mph - N/A   Unknown
2:52 AM 50.0 °F - 39.9 °F 68% 29.85 in - NE 5.8 mph - N/A   Unknown
3:52 AM 48.0 °F - 37.0 °F 66% 29.84 in - NE 5.8 mph - N/A   Unknown
4:52 AM 45.0 °F 41.8 °F 35.1 °F 68% 29.84 in - NE 5.8 mph - N/A   Unknown
5:52 AM 46.0 °F 43.9 °F 34.0 °F 63% 29.86 in - NE 4.6 mph - N/A   Unknown
6:52 AM 48.0 °F - 33.1 °F 56% 29.87 in - NE 5.8 mph - N/A   Unknown
7:52 AM 62.1 °F - 37.0 °F 39% 29.87 in - Calm Calm - N/A   Unknown
8:52 AM 73.0 °F - 32.0 °F 22% 29.86 in - Calm Calm - N/A   Unknown
9:52 AM 79.0 °F - 14.0 °F 9% 29.86 in - SW 8.1 mph - N/A   Unknown
10:52 AM 81.0 °F - 23.0 °F 12% 29.86 in - SW 10.4 mph - N/A   Unknown
11:52 AM 82.0 °F - 30.0 °F 15% 29.86 in - SW 9.2 mph - N/A   Unknown
12:52 PM 82.9 °F - 24.1 °F 12% 29.86 in - SW 10.4 mph 19.6 mph N/A   Unknown
1:52 PM 84.0 °F - 24.1 °F 11% 29.86 in - SSW 15.0 mph 19.6 mph N/A   Unknown
2:52 PM 84.0 °F - 30.9 °F 15% 29.85 in - SW 15.0 mph 19.6 mph N/A   Unknown
3:52 PM 82.9 °F - 39.9 °F 22% 29.85 in - WSW 12.7 mph 20.7 mph N/A   Unknown
4:52 PM 81.0 °F - 41.0 °F 24% 29.86 in - WSW 11.5 mph - N/A   Unknown
5:52 PM 78.1 °F - 46.9 °F 33% 29.86 in - SW 16.1 mph - N/A   Unknown
6:52 PM 72.0 °F - 48.9 °F 44% 29.87 in - SSW 12.7 mph - N/A   Unknown
7:52 PM 64.9 °F - 48.9 °F 56% 29.87 in - SW 6.9 mph - N/A   Unknown
8:52 PM 62.1 °F - 48.9 °F 62% 29.88 in - Calm Calm - N/A   Unknown
9:52 PM 55.9 °F - 44.1 °F 64% 29.90 in - Calm Calm - N/A   Unknown
10:52 PM 54.0 °F - 43.0 °F 66% 29.91 in - NNE 3.5 mph - N/A   Unknown
11:52 PM 51.1 °F - 42.1 °F 71% 29.91 in - NE 3.5 mph - N/A   Unknown